User: anonymous   Login
Location: Unspecified
(0.0000°N, 0.0000°E)
Time: 04:50:29
(UTC+00:00)
Language:

YAOGAN 4 - Orbit

View from above orbital plane
View from above orbital plane
View from above satellite
View from above satellite

Ground track
Ground track

The orbit data is extracted from the following two-line orbital elements,

1 33446U 08061A   18292.86670501  .00000086  00000-0  19028-4 0  9998
2 33446  97.6413 267.2854 0016989 145.5017 214.7300 14.76894691532295
Epoch (UTC): 19 October 2018 20:48:03
Eccentricity: 0.0016989
inclination: 97.6413°
perigee height: 627 km
apogee height: 651 km
right ascension of ascending node: 267.2854°
argument of perigee: 145.5017°
revolutions per day: 14.76894691
mean anomaly at epoch: 214.7300°
orbit number at epoch: 53229

The dashed part of the orbit path shows where the satellite is in the earth's shadow,  

DLR